Regional Weather Roundup
Issued by NWS Grand Forks, ND

Home | Current Version | Previous Version | Graphics & Text | Print | Product List | Glossary On
Versions: 1 2 3 4 5 6 7 8 9 10 11 12 13 14 15 16 17 18 19 20 21 22 23 24 25 26 27 28 29 30 31 32 33 34 35 36 37 38 39 40 41 42 43 44 45 46 47 48 49 50
000
ASUS43 KFGF 312210
RWRFGF
PRAIRIE TO PINES  WEATHER ROUNDUP
NATIONAL WEATHER SERVICE EASTERN NORTH DAKOTA/GRAND FORKS ND
500 PM CDT FRI OCT 31 2014

 **SATELLITE DATA USED TO AUGMENT SKY COVER AT AUTOMATED STATIONS**
 *****  WEATHER ACROSS EASTERN NORTH DAKOTA  *****

CITY           SKY/WX    TMP DP  RH WIND       PRES   REMARKS
GRAND FORKS    CLEAR     38  20  48 S12       30.43F
GRAND FRKS AFB CLEAR     38  19  45 S13       30.42F
GRAND FRKS NWS   N/A     36 N/A N/A SE12        N/A
DEVILS LAKE    MOSUNNY   37  14  38 S21       30.32F
FARGO          SUNNY     40  18  41 SE12      30.45F
WAHPETON ARPT  CLEAR     37  19  48 S9        30.47F
$$

 ***** WEATHER ACROSS CENTRAL AND WESTERN NORTH DAKOTA  *****

CITY           SKY/WX    TMP DP  RH WIND       PRES   REMARKS
BISMARCK       SUNNY     40  10  29 SE21G32   30.24F
MINOT          MOSUNNY   40  13  33 SE22G30   30.16F
JAMESTOWN      MOSUNNY   38  15  39 S18       30.35F
MINOT AFB      MOSUNNY   40  15  35 S24G32    30.14F
GARRISON         N/A     40  18  41 SE20G28   30.16F
WILLISTON      SUNNY     47  25  42 SE18G25   29.99F
DICKINSON      SUNNY     44  17  33 SE24G38   30.02F
HETTINGER      SUNNY     43  16  33 SE21G37   30.07F
$$

 *****  OTHER AIRPORT OBSERVATIONS IN OUR AREA  *****

CITY           SKY/WX    TMP DP  RH WIND       PRES   REMARKS
WALHALLA         N/A     37  18  44 S17       30.37F
GRAFTON AIRPOR FAIR      37  19  48 S16       30.42F
VALLEY CITY AR MIX PCPN  36  18  48 S13       30.40F
CANDO          FAIR      37  16  41 S20G25    30.31F
CAVALIER APRT  FAIR      39  18  41 S15G21    30.39F
GWINNER        CLEAR     41  19  42 S13       30.43F
SHEYENNE NWR     N/A     38  18  44 S10       29.95
ROLLA          FAIR      36  10  35 S20G26    30.26F
 ***** THE ABOVE OBSERVATIONS ARE NON NWS ARE NOT QUALITY
       CONTROLLED AND MAY MIS-REPORT RAIN FOR SNOW...
$$

  *****  WEATHER ACROSS NORTHERN MINNESOTA  *****

CITY           SKY/WX    TMP DP  RH WIND       PRES   REMARKS
FLAG ISLAND    CLEAR     36  25  64 S9        30.45F
WARROAD        CLEAR     37  19  48 S3        30.46S
ROSEAU         CLEAR     37  21  52 S7        30.45F
HALLOCK        CLEAR     39  18  41 S15G21    30.42F
THF RVR FALLS  CLEAR     37  19  48 S9        30.45F
BAUDETTE       CLEAR     37  16  42 S5        30.46F
WASKISH        CLEAR     36  23  60 CALM      30.47F
CROOKSTON      CLEAR     37  19  48 S12       30.46F
STEPHEN NDAWN    N/A     37  19  48 S13         N/A
GREENBUSH NDAW   N/A     37  19  48 S10         N/A
$$
  *****  WEATHER ACROSS CENTRAL AND WEST MINNESOTA  *****

CITY           SKY/WX    TMP DP  RH WIND       PRES   REMARKS
FOSSTON        CLEAR     39  16  38 S5        30.46S
BEMIDJI        CLEAR     37  16  43 SE5       30.46F
PARK RAPIDS    CLEAR     38  14  37 SE5       30.46F
ELBOW LAKE     FAIR      37  21  53 S6        30.47F
WADENA         CLEAR     37  16  41 SE5       30.46F
DETROIT LAKES  CLEAR     37  21  52 S8        30.46F
MOORHEAD       SUNNY     39  16  38 S12       30.47F
FERGUS FALLS   SUNNY     37  18  44 S7        30.48F
MORRIS MN      NOT AVBL
STAPLES        CLEAR     37  10  32 CALM      30.48S
$$
  *****  WEATHER ELSEWHERE ACROSS MINNESOTA  *****

CITY           SKY/WX    TMP DP  RH WIND       PRES   REMARKS
DULUTH         CLEAR     37  14  38 NW6       30.45S
INTRNTL FALLS  CLEAR     36  17  46 W3        30.47F
ELY            CLEAR     34  16  47 NW6       30.47R
CLOQUET        CLEAR     37  10  32 CALM      30.47S
WHEATON        SUNNY     36  19  51 S6        30.49F
BRAINERD       CLEAR     37  12  35 CALM      30.49S
HIBBING        CLEAR     37  14  38 W3        30.48R
ALEXANDRIA     CLEAR     37  15  40 SE6       30.48F
SAINT CLOUD    CLEAR     41  15  35 NE3       30.49S
MINNEAPOLIS    CLEAR     39  15  37 N8        30.50S
$$

  *****  WEATHER ACROSS SOUTH DAKOTA  *****

CITY           SKY/WX    TMP DP  RH WIND       PRES   REMARKS
SIOUX FALLS    MOSUNNY   40  16  37 SE7       30.47S
BROOKINGS      NOT AVBL
WATERTOWN      SUNNY     38  18  44 S12       30.43F
HURON          SUNNY     38  16  40 S9        30.43F
SISSETON         N/A     38  22  52 S9        30.45F
ABERDEEN       MOSUNNY   41  17  38 S14       30.41F
MITCHELL       MOSUNNY   40  18  41 S10       30.44F
PIERRE         MOSUNNY   43  11  27 SE26G32   30.28F
MOBRIDGE       MOSUNNY   42  12  29 SE28G35   30.25F
RAPID CITY     MOSUNNY   53  29  39 S29G37    30.07F
$$

  *****  SOME WEATHER IN NEARBY STATES *****

CITY           SKY/WX    TMP DP  RH WIND       PRES   REMARKS
GLASGOW MT     PTSUNNY   53  33  46 SE18      29.82F
GREAT FALLS MT MOSUNNY   69  32  25 W10       29.70S
CHEYENNE WY    PTSUNNY   51  28  41 S17       30.14F
SCOTTSBLUFF NE MOSUNNY   57  31  37 S21G31    30.12F
OMAHA NE       MOSUNNY   44  15  31 N5        30.49F
DES MOINES IA  SUNNY     43  16  33 N13       30.46R
DAVENPORT IA   PTCLDY    41  17  38 N18       30.37R
CHICAGO IL     CLOUDY    38  20  48 N29G38    30.25R
EAU CLAIRE WI  PTCLDY    39  16  39 N8        30.46S
LA CROSSE WI   PTCLDY    41  19  41 N15       30.45R
$$

  *****  SOME NATIONAL WEATHER *****

CITY           SKY/WX    TMP DP  RH WIND       PRES   REMARKS
LA GUARDIA NY  CLOUDY    54  42  64 NE9       29.90S
RALEIGH NC     MOCLDY    55  43  63 NE6       29.82F
ATLANTA GA     MOCLDY    59  42  53 NW10      29.89R
NEW ORLEANS LA MOSUNNY   73  44  35 NW17G29   30.03R
OKLAHOMA CITY  MOSUNNY   57  26  30 N13       30.37S
ALBUQUERQUE NM MOSUNNY   69  31  24 SE8       30.23F
SALT LAKE CITY PTSUNNY   76  20  12 S22G30    29.85F
LOS ANGELES CA CLOUDY    67  58  72 W10       29.88F
BOISE ID       PTSUNNY   63  39  41 W8        29.76R
SEATTLE WA     PTSUNNY   53  47  79 SW10      29.84S
$$

*** WEATHER ACROSS MANITOBA...SASKATCHEWAN AND ONTARIO ***
                ***ONTARIO***

CITY           SKY/WX    TMP DP  RH WIND       PRES   REMARKS
GERALDTON      FLURRIES  25  23  93 NW6       30.42R WCI  18
THUNDER BAY    PTCLDY    34  19  55 NW9       30.47R
SIOUX LOOKOUT  PTCLDY    32  19  59 VRB2      30.45F
TORONTO        LGT RAIN  45  41  87 E8        29.93R
BIG TROUT LK   CLEAR     30  21  69 W9        30.33S WCI  22
PICKLE LAKE    MOCLDY    27  19  74 W8        30.40F WCI  18
DRYDEN         CLEAR     34  18  51 W6        30.44F
KENORA         NOT AVBL
$$
                *** MANITOBA***

CITY           SKY/WX    TMP DP  RH WIND       PRES   REMARKS
BRANDON        PTSUNNY   39  12  33 S20G29    30.24F
DAUPHIN        PTCLDY    39  18  41 S9        30.19F
ISLAND LAKE    PTCLDY    32  25  74 S15G22    30.31S WCI  22
PILOT MOUND      N/A     37  12  35 S21G26      N/A
THE PAS        CLOUDY    36  23  60 SE22G29   30.02F
THOMPSON       MOCLDY    36  19  51 S7        30.09F
WINNIPEG       MOCLDY    36  18  48 S18       30.40F
LYNN LAKE      CLEAR     36  19  51 S12G17    29.92F
CHURCHILL      PTCLDY    28  23  80 N3        30.08S
GILLAM         PTCLDY    37  18  44 SW12G21   30.13F
$$
                ***SASKATCHEWAN***

CITY           SKY/WX    TMP DP  RH WIND       PRES   REMARKS
ESTEVAN        CLOUDY    41  23  48 SE22G28   30.03F
KINDERSLEY     NOT AVBL
LLOYDMINSTER   PTSUNNY   48  34  57 SE16      29.60F
PRINCE ALBERT  PTSUNNY   41  30  65 S15G24    29.82F
REGINA         NOT AVBL
YORKTON        CLOUDY    36  23  60 SE20G26   30.02F
N. BATTLEFORD  SUNNY     48  36  61 SE20      29.70F
LA RONGE       MOCLDY    36  28  75 S17G23    29.81F
SASKATOON      PTSUNNY   46  34  61 S16G26    29.77F
SWIFT CURRENT  SUNNY     50  34  53 S21G30    29.72F
$$
NOTE: THESE ARE AUTOMATED STATIONS WITH LIMITED QUALITY CONTROL
      "FAIR" INDICATES FEW OR NO CLOUDS BELOW 12,000 FEET WITH NO
      SIGNIFICANT WEATHER AND/OR OBSTRUCTIONS TO VISIBILITY.
      SKY/WX - SKY CONDITION AND SIGNIFICANT WEATHER.
      TMP - AIR TEMPERATURE.    DP   - DEWPOINT TEMPERATURE.
      RH  - RELATIVE HUMIDITY.  PRES - PRESSURE.
      HX  - HEAT INDEX.         WCI  - WIND CHILL INDEX.
$



USA.gov is the U.S. government's official web portal to all federal, state and local government web resources and services.